Location: Newark
(53.2933°N, 6.3959°W)
Time: 00:29:01
(UTC+00:00)

Envisat - Pass Details

Date: 27 February 2020
Orbit: 764 x 766 km, 98.1° (Epoch: 28 March)

Event Time Altitude Azimuth Distance (km) Brightness Sun altitude
Rises 05:44:21 0° 26° (NNE) 3,246 6.7 -14.9°
Reaches altitude 10° 05:47:30 10° 46° (NE) 2,314 6.3 -14.4°
Maximum altitude 05:50:46 17° 86° (E) 1,867 6.2 -13.9°
Drops below altitude 10° 05:54:02 10° 127° (SE) 2,302 6.2 -13.5°
Sets 05:57:09 0° 147° (SSE) 3,222 6.7 -13.0°
